This is the latest recevied weather packets stored in our database for station/object EA3FHP. If no packets are shown the sender has not sent any weather packets the latest 10 day(s).
| Time | Temp. | Humidity | Pressure | Rain* | Wind** | Luminosity | Snow |
|---|---|---|---|---|---|---|---|
| 1777210203 | 22.78° C | 60% | 1019.8 hPa | 0 mm | - | - | - |
| 1777209603 | 23.33° C | 57% | 1019.8 hPa | 0 mm | - | - | - |
| 1777209003 | 22.78° C | 57% | 1019.7 hPa | 0 mm | - | - | - |
| 1777208403 | 22.78° C | 58% | 1019.8 hPa | 0 mm | - | - | - |
| 1777207803 | 23.33° C | 58% | 1019.9 hPa | 0 mm | - | - | - |
| 1777207203 | 22.78° C | 59% | 1019.6 hPa | 0 mm | - | - | - |
| 1777206603 | 24.44° C | 56% | 1019.7 hPa | 0 mm | - | - | - |
| 1777206003 | 25° C | 52% | 1019.8 hPa | 0 mm | - | - | - |
| 1777205403 | 23.89° C | 52% | 1019.9 hPa | 0 mm | - | - | - |
| 1777204803 | 23.33° C | 59% | 1020.1 hPa | 0 mm | - | - | - |
| 1777204203 | 22.78° C | 60% | 1020.2 hPa | 0 mm | - | - | - |
| 1777203603 | 24.44° C | 56% | 1020.2 hPa | 0 mm | - | - | - |
| 1777203003 | 23.33° C | 53% | 1020.2 hPa | 0 mm | - | - | - |
| 1777202403 | 22.22° C | 55% | 1020.3 hPa | 0 mm | - | - | - |
| 1777201803 | 22.22° C | 58% | 1020.4 hPa | 0 mm | - | - | - |
| 1777201203 | 22.22° C | 55% | 1020.3 hPa | 0 mm | - | - | - |
| 1777200603 | 21.67° C | 56% | 1020.6 hPa | 0 mm | - | - | - |
| 1777200004 | 21.67° C | 62% | 1020.7 hPa | 0 mm | - | - | - |
| 1777199403 | 21.67° C | 66% | 1020.6 hPa | 0 mm | - | - | - |
| 1777198803 | 20.56° C | 67% | 1020.8 hPa | 0 mm | - | - | - |
| 1777198203 | 20.56° C | 66% | 1020.7 hPa | 0 mm | - | - | - |
| 1777197604 | 20° C | 66% | 1020.9 hPa | 0 mm | - | - | - |
| 1777197003 | 19.44° C | 67% | 1021.1 hPa | 0 mm | - | - | - |
| 1777196403 | 19.44° C | 70% | 1020.9 hPa | 0 mm | - | - | - |
| 1777195803 | 18.89° C | 70% | 1020.9 hPa | 0 mm | - | - | - |
* Rain latest hour (hover to see other rain measurements)
** Current wind speed in m/s (hover to see current wind gust speed)